Location: Unspecified
(0.0000°N, 0.0000°E)
Time: 03:33:02
(UTC+00:00)

Tansei-1 - Pass Details

Date: 18 May 2026
Orbit: 981 x 1100 km, 29.7° (Epoch: 8 June)

Event Time Altitude Azimuth Distance (km) Brightness Sun altitude
Exits shadow 04:03:56 10° 322° (NW) 2,779 9.7 -26.4°
Reaches altitude 10° 04:04:00 10° 323° (NW) 2,757 9.7 -26.4°
Maximum altitude 04:10:14 41° 31° (NNE) 1,443 8.7 -24.9°
Drops below altitude 10° 04:16:39 10° 99° (E) 2,840 10.7 -23.4°
Sets 04:19:34 0° 106° (ESE) 3,814 11.4 -22.7°
